Location: Unspecified
(0.0000°N, 0.0000°E)
Time: 23:10:46
(UTC+02:00)

Cosmos 2369 Rocket - Visible Passes

Search period start: 30 June 2016 00:00
Search period end: 10 July 2016 00:00
Orbit: 829 x 853 km, 71.0° (Epoch: 29 June)

Date Brightness Start Highest point End Pass type
(mag) Time Alt. Az. Time Alt. Az. Time Alt. Az.
30 Jun 4.1 05:08:25 25° ENE 05:08:25 25° ENE 05:11:40 10° NE visible
30 Jun 3.5 06:50:16 20° W 06:50:35 20° WNW 06:54:38 10° NNW visible
01 Jul 4.5 04:54:12 19° ENE 04:54:12 19° ENE 04:56:13 10° NE visible
01 Jul 3.6 06:36:03 21° WNW 06:36:03 21° WNW 06:39:32 10° NNW visible
02 Jul 4.9 04:39:56 13° ENE 04:39:56 13° ENE 04:40:45 10° NE visible
02 Jul 3.8 06:21:46 20° NW 06:21:46 20° NW 06:24:24 10° NNW visible
03 Jul 4.0 06:07:27 18° NW 06:07:27 18° NW 06:09:15 10° NNW visible
04 Jul 4.3 05:53:02 15° NNW 05:53:02 15° NNW 05:54:06 10° NNW visible
05 Jul 4.6 05:38:36 11° NNW 05:38:36 11° NNW 05:38:54 10° NNW visible
